When you browse on this site, cookies collect data to enhance your experience and personalize the content and advertising you see.
Visit our Privacy Policy to learn more. By continuing to use the site, you agree to this use of cookies and data.
  • In Czech Republic
  • List of Countries
  • For 7 days
  • Water Temperature
  • Weather Map
  • Weather Widgets
  • user-avatar
    Login

    Hourly Weather Kalgoorlie

    Today, 20 October, Sunday

    Time Temperature Precipitation Wind Pressure Humidity
    00:00 +22°C° 0 mm 7 mps 731 mmHg 26%
    01:00 +22°C° 0 mm 7 mps 731 mmHg 26%
    02:00 +21°C° 0 mm 6 mps 731 mmHg 26%
    03:00 +21°C° 0 mm 6 mps 731 mmHg 27%
    04:00 +21°C° 0 mm 6 mps 730 mmHg 28%
    05:00 +20°C° 0 mm 6 mps 730 mmHg 29%
    06:00 +23°C° 0 mm 6 mps 730 mmHg 27%
    07:00 +27°C° 0 mm 7 mps 731 mmHg 26%
    08:00 +31°C° 0 mm 9 mps 731 mmHg 25%
    09:00 +33°C° 0 mm 9 mps 731 mmHg 21%
    10:00 +37°C° 0 mm 9 mps 730 mmHg 17%
    11:00 +39°C° 0 mm 9 mps 730 mmHg 13%
    12:00 +40°C° 0 mm 9 mps 729 mmHg 13%
    13:00 +40°C° 0 mm 9 mps 728 mmHg 12%
    14:00 +41°C° 0 mm 7 mps 728 mmHg 10%
    15:00 +40°C° 0 mm 7 mps 728 mmHg 10%
    16:00 +39°C° 0 mm 7 mps 728 mmHg 11%
    17:00 +39°C° 0 mm 7 mps 728 mmHg 11%
    18:00 +35°C° 0 mm 6 mps 729 mmHg 14%
    19:00 +32°C° 0 mm 5 mps 729 mmHg 17%
    20:00 +29°C° 0 mm 5 mps 730 mmHg 20%
    21:00 +27°C° 0 mm 5 mps 730 mmHg 29%
    22:00 +25°C° 0 mm 5 mps 730 mmHg 38%
    23:00 +22°C° 0 mm 6 mps 730 mmHg 47%

    Tomorrow, 21 October, Monday

    Time Temperature Precipitation Wind Pressure Humidity
    00:00 +22°C° 0 mm 5 mps 730 mmHg 51%
    01:00 +21°C° 0 mm 4 mps 730 mmHg 54%
    02:00 +20°C° 0 mm 4 mps 730 mmHg 57%
    03:00 +20°C° 0 mm 3 mps 730 mmHg 54%
    04:00 +19°C° 0 mm 3 mps 730 mmHg 51%
    05:00 +18°C° 0 mm 2 mps 730 mmHg 48%
    06:00 +20°C° 0 mm 2 mps 730 mmHg 41%
    07:00 +24°C° 0 mm 2 mps 730 mmHg 35%
    08:00 +26°C° 0 mm 1 mps 731 mmHg 29%
    09:00 +28°C° 0 mm 2 mps 730 mmHg 25%
    10:00 +31°C° 0 mm 2 mps 730 mmHg 22%
    11:00 +34°C° 0 mm 2 mps 730 mmHg 18%
    12:00 +35°C° 0 mm 3 mps 730 mmHg 16%
    13:00 +36°C° 0 mm 4 mps 729 mmHg 14%
    14:00 +39°C° 0 mm 5 mps 729 mmHg 11%
    15:00 +37°C° 0 mm 5 mps 728 mmHg 11%
    16:00 +37°C° 0 mm 5 mps 728 mmHg 11%
    17:00 +37°C° 0 mm 5 mps 728 mmHg 11%
    18:00 +34°C° 0 mm 6 mps 729 mmHg 13%
    19:00 +32°C° 0 mm 6 mps 729 mmHg 16%
    20:00 +28°C° 0 mm 6 mps 730 mmHg 18%
    21:00 +26°C° 0 mm 7 mps 730 mmHg 30%
    22:00 +23°C° 0 mm 7 mps 730 mmHg 42%
    23:00 +21°C° 0 mm 7 mps 731 mmHg 54%

    Day after tomorrow, 22 October, Tuesday

    Time Temperature Precipitation Wind Pressure Humidity
    00:00 +20°C° 0 mm 7 mps 730 mmHg 54%
    01:00 +19°C° 0 mm 6 mps 730 mmHg 55%
    02:00 +17°C° 0 mm 5 mps 729 mmHg 56%
    03:00 +17°C° 0 mm 5 mps 729 mmHg 56%
    04:00 +16°C° 0 mm 5 mps 730 mmHg 56%
    05:00 +15°C° 0 mm 5 mps 730 mmHg 56%
    06:00 +17°C° 0 mm 5 mps 730 mmHg 52%
    07:00 +19°C° 0 mm 6 mps 730 mmHg 48%
    08:00 +21°C° 0 mm 6 mps 730 mmHg 45%
    09:00 +23°C° 0 mm 5 mps 730 mmHg 40%
    10:00 +27°C° 0 mm 4 mps 730 mmHg 36%
    11:00 +29°C° 0 mm 3 mps 730 mmHg 32%
    12:00 +30°C° 0 mm 2 mps 730 mmHg 27%
    13:00 +32°C° 0 mm 2 mps 729 mmHg 22%
    14:00 +34°C° 0 mm 2 mps 728 mmHg 18%
    15:00 +34°C° 0 mm 2 mps 728 mmHg 17%
    16:00 +34°C° 0 mm 2 mps 728 mmHg 16%
    17:00 +34°C° 0 mm 2 mps 727 mmHg 15%
    18:00 +31°C° 0 mm 2 mps 728 mmHg 18%
    19:00 +28°C° 0 mm 2 mps 728 mmHg 21%
    20:00 +26°C° 0 mm 2 mps 728 mmHg 25%
    21:00 +23°C° 0 mm 4 mps 728 mmHg 33%
    22:00 +22°C° 0 mm 5 mps 729 mmHg 41%
    23:00 +21°C° 0 mm 7 mps 729 mmHg 50%

    23 October, Wednesday

    Time Temperature Precipitation Wind Pressure Humidity
    00:00 +20°C° 0 mm 6 mps 729 mmHg 54%
    01:00 +17°C° 0 mm 5 mps 728 mmHg 59%
    02:00 +17°C° 0 mm 3 mps 728 mmHg 63%
    03:00 +17°C° 0 mm 3 mps 728 mmHg 66%
    04:00 +16°C° 0 mm 3 mps 728 mmHg 69%
    05:00 +16°C° 0 mm 2 mps 728 mmHg 72%
    06:00 +18°C° 0 mm 2 mps 728 mmHg 65%
    07:00 +21°C° 0 mm 1 mps 728 mmHg 58%
    08:00 +21°C° 0 mm 0 mps 728 mmHg 51%
    09:00 +26°C° 0 mm 2 mps 728 mmHg 41%
    10:00 +29°C° 0 mm 3 mps 728 mmHg 30%
    11:00 +33°C° 0 mm 4 mps 728 mmHg 20%
    12:00 +34°C° 0 mm 5 mps 727 mmHg 17%
    13:00 +35°C° 0 mm 5 mps 726 mmHg 14%
    14:00 +36°C° 0 mm 6 mps 726 mmHg 11%
    15:00 +36°C° 0 mm 7 mps 725 mmHg 12%
    16:00 +35°C° 0 mm 7 mps 725 mmHg 12%
    17:00 +34°C° 0 mm 8 mps 725 mmHg 13%
    18:00 +32°C° 0 mm 7 mps 726 mmHg 15%
    19:00 +28°C° 0 mm 7 mps 726 mmHg 16%
    20:00 +26°C° 0 mm 7 mps 726 mmHg 18%
    21:00 +23°C° 0 mm 6 mps 726 mmHg 23%
    22:00 +22°C° 0 mm 6 mps 727 mmHg 28%
    23:00 +21°C° 0 mm 6 mps 727 mmHg 33%

    24 October, Thursday

    Time Temperature Precipitation Wind Pressure Humidity
    00:00 +20°C° 0 mm 6 mps 726 mmHg 40%
    01:00 +19°C° 0 mm 6 mps 726 mmHg 48%
    02:00 +16°C° 0 mm 6 mps 726 mmHg 55%
    03:00 +15°C° 0 mm 5 mps 726 mmHg 60%
    04:00 +14°C° 0 mm 4 mps 726 mmHg 65%
    05:00 +13°C° 0 mm 4 mps 726 mmHg 71%
    06:00 +14°C° 0 mm 5 mps 727 mmHg 66%
    07:00 +16°C° 0 mm 7 mps 728 mmHg 61%
    08:00 +17°C° 0 mm 8 mps 728 mmHg 56%
    09:00 +18°C° 0 mm 8 mps 728 mmHg 46%
    10:00 +21°C° 0 mm 9 mps 729 mmHg 37%
    11:00 +22°C° 0 mm 9 mps 729 mmHg 28%
    12:00 +23°C° 0 mm 9 mps 729 mmHg 24%
    13:00 +24°C° 0 mm 9 mps 728 mmHg 21%
    14:00 +26°C° 0 mm 9 mps 728 mmHg 18%
    15:00 +26°C° 0 mm 8 mps 728 mmHg 19%
    16:00 +24°C° 0 mm 8 mps 728 mmHg 19%
    17:00 +23°C° 0 mm 8 mps 728 mmHg 20%
    18:00 +21°C° 0 mm 7 mps 729 mmHg 22%
    19:00 +19°C° 0 mm 6 mps 730 mmHg 23%
    20:00 +16°C° 0 mm 5 mps 731 mmHg 25%
    21:00 +15°C° 0 mm 6 mps 731 mmHg 32%
    22:00 +14°C° 0 mm 6 mps 731 mmHg 38%
    23:00 +13°C° 0 mm 6 mps 732 mmHg 45%

    25 October, Friday

    Time Temperature Precipitation Wind Pressure Humidity
    00:00 +10°C° 0 mm 5 mps 732 mmHg 53%
    01:00 +9°C° 0 mm 5 mps 731 mmHg 61%
    02:00 +8°C° 0 mm 4 mps 731 mmHg 68%
    03:00 +8°C° 0 mm 3 mps 732 mmHg 73%
    04:00 +7°C° 0 mm 3 mps 732 mmHg 78%
    05:00 +7°C° 0 mm 2 mps 733 mmHg 83%
    06:00 +9°C° 0 mm 3 mps 733 mmHg 70%
    07:00 +11°C° 0 mm 3 mps 733 mmHg 56%
    08:00 +13°C° 0 mm 3 mps 734 mmHg 43%
    09:00 +16°C° 0 mm 3 mps 734 mmHg 35%
    10:00 +18°C° 0 mm 3 mps 734 mmHg 27%
    11:00 +21°C° 0 mm 2 mps 734 mmHg 19%
    12:00 +22°C° 0 mm 3 mps 733 mmHg 17%
    13:00 +24°C° 0 mm 3 mps 733 mmHg 15%
    14:00 +26°C° 0 mm 3 mps 732 mmHg 13%
    15:00 +26°C° 0 mm 3 mps 732 mmHg 13%
    16:00 +26°C° 0 mm 3 mps 732 mmHg 13%
    17:00 +26°C° 0 mm 4 mps 732 mmHg 13%
    18:00 +23°C° 0 mm 4 mps 732 mmHg 16%
    19:00 +21°C° 0 mm 4 mps 733 mmHg 19%
    20:00 +18°C° 0 mm 4 mps 733 mmHg 22%
    21:00 +16°C° 0 mm 5 mps 733 mmHg 28%
    22:00 +15°C° 0 mm 6 mps 734 mmHg 33%
    23:00 +14°C° 0 mm 6 mps 734 mmHg 38%
    Show more